JFK1 KOWB-KLOU

Flight info

Callsign JFK1
Flight time N/A
Altitude 7500
Route
Aircraft B350/L-VGD/C

Departure

Time 2026-05-07 01:12
Airport Owensboro Daviess County Airport (KOWB)

Arrival

Time N/A
Airport Bowman Field (KLOU)
Time Latitude Longitude Altitude Speed Heading
2026-05-07 00:54 37.73708 -87.16403 402 ft 0 kts 90°
2026-05-07 01:09 37.73712 -87.16399 402 ft 4 kts 350°
2026-05-07 01:10 37.73777 -87.16460 402 ft 11 kts 304°
2026-05-07 01:10 37.73730 -87.16538 402 ft 20 kts 175°
2026-05-07 01:10 37.73549 -87.16528 402 ft 30 kts 176°
2026-05-07 01:10 37.73331 -87.16518 402 ft 25 kts 180°
2026-05-07 01:11 37.73115 -87.16511 402 ft 35 kts 176°
2026-05-07 01:11 37.72862 -87.16498 401 ft 35 kts 176°
2026-05-07 01:11 37.72714 -87.16564 401 ft 12 kts 270°
2026-05-07 01:11 37.72775 -87.16667 401 ft 25 kts 351°
2026-05-07 01:12 37.73061 -87.16691 402 ft 81 kts 354°
2026-05-07 01:12 37.73965 -87.16769 639 ft 160 kts 356°
2026-05-07 01:12 37.75134 -87.16909 1303 ft 171 kts 343°
2026-05-07 01:12 37.76083 -87.17697 2264 ft 167 kts 299°
2026-05-07 01:13 37.76022 -87.19089 2815 ft 179 kts 227°
2026-05-07 01:13 37.74739 -87.19463 2960 ft 208 kts 175°
2026-05-07 01:13 37.73309 -87.19218 3717 ft 201 kts 167°
2026-05-07 01:13 37.71953 -87.18810 4342 ft 201 kts 156°
2026-05-07 01:14 37.70741 -87.17955 5031 ft 204 kts 149°
2026-05-07 01:14 37.69552 -87.17011 5705 ft 204 kts 147°
2026-05-07 01:14 37.68358 -87.16049 6379 ft 204 kts 148°
2026-05-07 01:14 37.67159 -87.15083 7057 ft 205 kts 147°
2026-05-07 01:15 37.65954 -87.14117 7734 ft 205 kts 148°
2026-05-07 01:15 37.64734 -87.13142 8418 ft 205 kts 148°
2026-05-07 01:15 37.63553 -87.12202 9081 ft 203 kts 148°
2026-05-07 01:15 37.62370 -87.11261 9749 ft 201 kts 148°
2026-05-07 01:16 37.61330 -87.10435 10343 ft 198 kts 148°
2026-05-07 01:16 37.60111 -87.09467 11049 ft 194 kts 148°
2026-05-07 01:16 37.59127 -87.08686 11630 ft 189 kts 148°
2026-05-07 01:17 37.57187 -87.07147 12816 ft 177 kts 148°
2026-05-07 01:17 37.56293 -87.06439 13337 ft 174 kts 148°
2026-05-07 01:17 37.54991 -87.05407 13482 ft 202 kts 148°
2026-05-07 01:17 37.53815 -87.04477 13500 ft 226 kts 148°
2026-05-07 01:18 37.52298 -87.03277 13496 ft 249 kts 148°
2026-05-07 01:18 37.51050 -87.02290 13496 ft 264 kts 148°
2026-05-07 01:18 37.49378 -87.00968 13494 ft 279 kts 148°
2026-05-07 01:18 37.47832 -86.99747 13489 ft 289 kts 148°
2026-05-07 01:19 37.45927 -86.98243 13485 ft 298 kts 148°
2026-05-07 01:19 37.44255 -86.96924 13482 ft 303 kts 148°
2026-05-07 01:19 37.43355 -86.96214 13483 ft 307 kts 148°
2026-05-07 01:19 37.41511 -86.94757 13501 ft 314 kts 148°
2026-05-07 01:20 37.39717 -86.93347 13512 ft 310 kts 148°
2026-05-07 01:20 37.38690 -86.92539 13475 ft 310 kts 148°
2026-05-07 01:20 37.36752 -86.91016 13471 ft 307 kts 148°
2026-05-07 01:20 37.34732 -86.89426 13470 ft 305 kts 148°
2026-05-07 01:21 37.32732 -86.87853 13471 ft 304 kts 148°
2026-05-07 01:21 37.30918 -86.86428 13471 ft 303 kts 148°
2026-05-07 01:21 37.29145 -86.85036 13471 ft 302 kts 148°
2026-05-07 01:21 37.27337 -86.83617 13472 ft 301 kts 148°
2026-05-07 01:22 37.25552 -86.82217 13472 ft 301 kts 148°
2026-05-07 01:22 37.23779 -86.80830 13472 ft 301 kts 148°
2026-05-07 01:22 37.22262 -86.79644 13472 ft 300 kts 148°
2026-05-07 01:22 37.20430 -86.78213 13472 ft 300 kts 148°
2026-05-07 01:23 37.18644 -86.76820 13472 ft 300 kts 148°
2026-05-07 01:23 37.16875 -86.75442 13472 ft 300 kts 148°
2026-05-07 01:23 37.15106 -86.74066 13472 ft 300 kts 148°
2026-05-07 01:23 37.13317 -86.72676 13473 ft 300 kts 148°
2026-05-07 01:24 37.11533 -86.71291 13473 ft 300 kts 148°
2026-05-07 01:24 37.09756 -86.69914 13473 ft 300 kts 148°
2026-05-07 01:24 37.07983 -86.68542 13473 ft 300 kts 148°
2026-05-07 01:24 37.06202 -86.67165 13473 ft 300 kts 148°
2026-05-07 01:25 37.04410 -86.65781 13473 ft 300 kts 148°
2026-05-07 01:25 37.02636 -86.64413 13473 ft 300 kts 148°
2026-05-07 01:25 37.00866 -86.63049 13473 ft 300 kts 148°
2026-05-07 01:25 36.99077 -86.61673 13473 ft 300 kts 148°
2026-05-07 01:26 36.97293 -86.60303 13473 ft 300 kts 148°
2026-05-07 01:26 36.95498 -86.58926 13473 ft 300 kts 148°
2026-05-07 01:26 36.93720 -86.57562 13473 ft 300 kts 148°
2026-05-07 01:26 36.91938 -86.56198 13473 ft 300 kts 148°
2026-05-07 01:27 36.90142 -86.54826 13473 ft 300 kts 148°
2026-05-07 01:27 36.88361 -86.53465 13472 ft 300 kts 148°
2026-05-07 01:27 36.86586 -86.52113 13470 ft 297 kts 148°
2026-05-07 01:27 36.84809 -86.50764 13470 ft 296 kts 148°
2026-05-07 01:28 36.83298 -86.49621 13471 ft 295 kts 148°
2026-05-07 01:28 36.81515 -86.48276 13471 ft 294 kts 148°
2026-05-07 01:28 36.79745 -86.46944 13471 ft 293 kts 149°
2026-05-07 01:28 36.77985 -86.45625 13472 ft 292 kts 149°
2026-05-07 01:29 36.76240 -86.44321 13472 ft 292 kts 149°
2026-05-07 01:29 36.74488 -86.43015 13472 ft 291 kts 149°
2026-05-07 01:29 36.72754 -86.41727 13472 ft 291 kts 149°
2026-05-07 01:29 36.70996 -86.40424 13472 ft 291 kts 149°
2026-05-07 01:30 36.69241 -86.39128 13472 ft 291 kts 149°
2026-05-07 01:30 36.67506 -86.37850 13472 ft 291 kts 149°
2026-05-07 01:30 36.65733 -86.36549 13472 ft 291 kts 149°
2026-05-07 01:30 36.63984 -86.35269 13472 ft 291 kts 149°
2026-05-07 01:31 36.62226 -86.33987 13472 ft 291 kts 150°
2026-05-07 01:31 36.60473 -86.32711 13472 ft 291 kts 150°
2026-05-07 01:31 36.58767 -86.31473 13472 ft 291 kts 150°
2026-05-07 01:31 36.57053 -86.30234 13472 ft 291 kts 150°
2026-05-07 01:32 36.55255 -86.28938 13472 ft 291 kts 150°
2026-05-07 01:32 36.54299 -86.28251 13473 ft 291 kts 150°
2026-05-07 01:32 36.52667 -86.27079 13473 ft 291 kts 150°
2026-05-07 01:32 36.50907 -86.25819 13473 ft 291 kts 150°
2026-05-07 01:33 36.48983 -86.24448 13473 ft 291 kts 150°
2026-05-07 01:33 36.47253 -86.23218 13473 ft 291 kts 150°
2026-05-07 01:33 36.45476 -86.21958 13473 ft 291 kts 150°
2026-05-07 01:33 36.43717 -86.20715 13473 ft 291 kts 150°
2026-05-07 01:34 36.41956 -86.19475 13473 ft 291 kts 150°
2026-05-07 01:34 36.40169 -86.18220 13473 ft 291 kts 150°
2026-05-07 01:34 36.38403 -86.16983 13473 ft 291 kts 150°
2026-05-07 01:34 36.36641 -86.15753 13473 ft 291 kts 151°
2026-05-07 01:35 36.34884 -86.14531 13473 ft 291 kts 151°
2026-05-07 01:35 36.33098 -86.13291 13473 ft 291 kts 151°
2026-05-07 01:35 36.31353 -86.12085 13473 ft 291 kts 151°
2026-05-07 01:35 36.29583 -86.10864 13473 ft 291 kts 151°
2026-05-07 01:36 36.27809 -86.09645 13473 ft 291 kts 151°
2026-05-07 01:36 36.26059 -86.08446 13473 ft 291 kts 151°
2026-05-07 01:36 36.24281 -86.07231 13473 ft 291 kts 151°
2026-05-07 01:36 36.22509 -86.06025 13473 ft 291 kts 151°
2026-05-07 01:37 36.20748 -86.04829 13473 ft 291 kts 151°
2026-05-07 01:37 36.18971 -86.03626 13473 ft 291 kts 151°
2026-05-07 01:37 36.17166 -86.02409 13473 ft 291 kts 152°
2026-05-07 01:37 36.15394 -86.01217 13473 ft 291 kts 152°
2026-05-07 01:38 36.13615 -86.00024 13473 ft 291 kts 152°
2026-05-07 01:38 36.11817 -85.98822 13473 ft 291 kts 152°
2026-05-07 01:38 36.10027 -85.97629 13473 ft 291 kts 152°
2026-05-07 01:38 36.08232 -85.96436 13473 ft 291 kts 152°
2026-05-07 01:39 36.06450 -85.95257 13473 ft 291 kts 152°
2026-05-07 01:39 36.04673 -85.94084 13473 ft 291 kts 152°
2026-05-07 01:39 36.02877 -85.92902 13473 ft 291 kts 152°
2026-05-07 01:39 36.01091 -85.91730 13473 ft 291 kts 152°
2026-05-07 01:40 35.99447 -85.90655 13472 ft 291 kts 152°
2026-05-07 01:40 35.97657 -85.89488 13472 ft 291 kts 152°
2026-05-07 01:40 35.95874 -85.88329 13472 ft 291 kts 152°
2026-05-07 01:40 35.94079 -85.87167 13472 ft 291 kts 152°
2026-05-07 01:41 35.92268 -85.85998 13472 ft 291 kts 152°
2026-05-07 01:41 35.90483 -85.84850 13472 ft 291 kts 152°
2026-05-07 01:41 35.88856 -85.83807 13472 ft 291 kts 152°
2026-05-07 01:41 35.87055 -85.82657 13472 ft 291 kts 153°
2026-05-07 01:42 35.85165 -85.81454 13472 ft 291 kts 153°
2026-05-07 01:42 35.83370 -85.80316 13472 ft 291 kts 153°
2026-05-07 01:42 35.81607 -85.79202 13472 ft 291 kts 153°
2026-05-07 01:42 35.79805 -85.78067 13472 ft 291 kts 153°
2026-05-07 01:43 35.77997 -85.76933 13472 ft 291 kts 153°
2026-05-07 01:43 35.76192 -85.75805 13472 ft 291 kts 153°
2026-05-07 01:43 35.74388 -85.74681 13472 ft 291 kts 153°
2026-05-07 01:43 35.72562 -85.73548 13472 ft 291 kts 153°
2026-05-07 01:44 35.70942 -85.72546 13472 ft 291 kts 153°
2026-05-07 01:44 35.69127 -85.71427 13472 ft 291 kts 153°
2026-05-07 01:44 35.67299 -85.70305 13472 ft 291 kts 153°
2026-05-07 01:44 35.65486 -85.69196 13472 ft 291 kts 153°
2026-05-07 01:45 35.63676 -85.68092 13472 ft 291 kts 153°
2026-05-07 01:45 35.61852 -85.66984 13472 ft 291 kts 154°
2026-05-07 01:45 35.60066 -85.65903 13472 ft 291 kts 154°
2026-05-07 01:45 35.58227 -85.64794 13472 ft 291 kts 154°
2026-05-07 01:46 35.56406 -85.63699 13472 ft 291 kts 154°
2026-05-07 01:46 35.54575 -85.62603 13472 ft 291 kts 154°
2026-05-07 01:46 35.52775 -85.61485 13464 ft 291 kts 149°
2026-05-07 01:46 35.51031 -85.60129 13473 ft 291 kts 147°
2026-05-07 01:47 35.49345 -85.58775 13473 ft 291 kts 146°
2026-05-07 01:47 35.47654 -85.57392 13473 ft 291 kts 146°
2026-05-07 01:47 35.45970 -85.56017 13472 ft 291 kts 146°
2026-05-07 01:47 35.44300 -85.54657 13472 ft 291 kts 146°
2026-05-07 01:48 35.42612 -85.53284 13472 ft 291 kts 146°
2026-05-07 01:48 35.40922 -85.51909 13472 ft 291 kts 146°
2026-05-07 01:48 35.39229 -85.50534 13472 ft 291 kts 146°
2026-05-07 01:48 35.37537 -85.49161 13472 ft 291 kts 146°
2026-05-07 01:49 35.35857 -85.47798 13472 ft 291 kts 146°
2026-05-07 01:49 35.34164 -85.46426 13472 ft 291 kts 146°
2026-05-07 01:49 35.32465 -85.45049 13472 ft 291 kts 146°
2026-05-07 01:49 35.30776 -85.43681 13472 ft 291 kts 146°
2026-05-07 01:50 35.29100 -85.42325 13472 ft 291 kts 146°
2026-05-07 01:50 35.27399 -85.40949 13472 ft 291 kts 146°
2026-05-07 01:50 35.25720 -85.39591 13472 ft 291 kts 146°
2026-05-07 01:50 35.24034 -85.38229 13472 ft 291 kts 146°
2026-05-07 01:51 35.22329 -85.36847 13476 ft 293 kts 146°
2026-05-07 01:51 35.20599 -85.35443 13475 ft 296 kts 146°
2026-05-07 01:51 35.18884 -85.34055 13475 ft 298 kts 147°
2026-05-07 01:51 35.17395 -85.32851 13475 ft 299 kts 147°
2026-05-07 01:52 35.15712 -85.31493 13474 ft 300 kts 147°
2026-05-07 01:52 35.14527 -85.30537 13474 ft 301 kts 147°
2026-05-07 01:52 35.12139 -85.28613 13473 ft 301 kts 147°
2026-05-07 01:52 35.10654 -85.27418 13473 ft 302 kts 147°
2026-05-07 01:53 35.08783 -85.25912 13473 ft 302 kts 147°
2026-05-07 01:53 35.07032 -85.24504 13473 ft 302 kts 147°
2026-05-07 01:53 35.05272 -85.23090 13473 ft 303 kts 147°
2026-05-07 01:53 35.03506 -85.21671 13473 ft 303 kts 147°
2026-05-07 01:54 35.01749 -85.20262 13473 ft 303 kts 147°
2026-05-07 01:54 34.99984 -85.18845 13473 ft 303 kts 147°
2026-05-07 01:54 34.98839 -85.17928 13473 ft 303 kts 147°
2026-05-07 01:55 34.94800 -85.14691 13473 ft 303 kts 147°
2026-05-07 01:55 34.93061 -85.13299 13473 ft 303 kts 147°
2026-05-07 01:55 34.91337 -85.11919 13473 ft 303 kts 147°
2026-05-07 01:55 34.89862 -85.10741 13473 ft 303 kts 147°
2026-05-07 01:56 34.87949 -85.09210 13473 ft 303 kts 147°
2026-05-07 01:56 34.86108 -85.07739 13473 ft 303 kts 147°
2026-05-07 01:56 34.84725 -85.06634 13473 ft 303 kts 147°
2026-05-07 01:57 34.81529 -85.04084 13473 ft 303 kts 147°
2026-05-07 01:57 34.79621 -85.02563 13473 ft 303 kts 147°
2026-05-07 01:57 34.77860 -85.01160 13473 ft 303 kts 147°
2026-05-07 01:57 34.76091 -84.99751 13473 ft 303 kts 147°
2026-05-07 01:58 34.74313 -84.98335 13473 ft 303 kts 147°
2026-05-07 01:58 34.72616 -84.96986 13473 ft 303 kts 147°
2026-05-07 01:58 34.70845 -84.95576 13473 ft 303 kts 147°
2026-05-07 01:58 34.69077 -84.94172 13473 ft 303 kts 147°
2026-05-07 01:59 34.67319 -84.92775 13473 ft 303 kts 147°
2026-05-07 01:59 34.65550 -84.91370 13473 ft 303 kts 147°
2026-05-07 01:59 34.63779 -84.89964 13473 ft 303 kts 147°
2026-05-07 01:59 34.62006 -84.88558 13473 ft 303 kts 147°
2026-05-07 02:00 34.60218 -84.87141 13473 ft 303 kts 147°
2026-05-07 02:00 34.58452 -84.85741 13473 ft 303 kts 147°
2026-05-07 02:00 34.56684 -84.84341 13473 ft 303 kts 147°
2026-05-07 02:00 34.54890 -84.82920 13473 ft 303 kts 147°
2026-05-07 02:01 34.53119 -84.81519 13473 ft 303 kts 147°
2026-05-07 02:01 34.51337 -84.80110 13473 ft 303 kts 147°
2026-05-07 02:01 34.49584 -84.78725 13473 ft 303 kts 147°
2026-05-07 02:01 34.47807 -84.77321 13473 ft 303 kts 147°
2026-05-07 02:02 34.46021 -84.75910 13473 ft 303 kts 147°
2026-05-07 02:02 34.44258 -84.74519 13473 ft 303 kts 147°
2026-05-07 02:02 34.42490 -84.73125 13473 ft 303 kts 147°
2026-05-07 02:02 34.40699 -84.71713 13473 ft 303 kts 147°
2026-05-07 02:03 34.39011 -84.70383 13473 ft 303 kts 147°
2026-05-07 02:03 34.37336 -84.69064 13473 ft 303 kts 147°
2026-05-07 02:03 34.35573 -84.67676 13473 ft 303 kts 147°
2026-05-07 02:03 34.33784 -84.66269 13473 ft 303 kts 147°
2026-05-07 02:04 34.32254 -84.65066 13473 ft 303 kts 147°
2026-05-07 02:04 34.30353 -84.63571 13473 ft 303 kts 147°
2026-05-07 02:04 34.28596 -84.62195 13473 ft 303 kts 147°
2026-05-07 02:04 34.26836 -84.60815 13473 ft 303 kts 147°
2026-05-07 02:05 34.25051 -84.59418 13458 ft 293 kts 147°
2026-05-07 02:05 34.23412 -84.58137 13447 ft 271 kts 147°
2026-05-07 02:05 34.21877 -84.56935 13448 ft 253 kts 147°
2026-05-07 02:05 34.20457 -84.55826 13452 ft 232 kts 147°
2026-05-07 02:06 34.19152 -84.54809 13450 ft 211 kts 147°
2026-05-07 02:06 34.17943 -84.53870 13456 ft 199 kts 147°
2026-05-07 02:06 34.16811 -84.52991 13458 ft 190 kts 147°
2026-05-07 02:06 34.15717 -84.52142 13459 ft 181 kts 147°
2026-05-07 02:07 34.14676 -84.51344 13436 ft 175 kts 148°
2026-05-07 02:07 34.12645 -84.49665 13642 ft 178 kts 139°
2026-05-07 02:07 34.11668 -84.48619 13615 ft 191 kts 136°
2026-05-07 02:08 34.10582 -84.47602 13104 ft 199 kts 146°
2026-05-07 02:08 34.09625 -84.46843 12264 ft 229 kts 147°
2026-05-07 02:08 34.08247 -84.45799 11825 ft 224 kts 147°
2026-05-07 02:08 34.06971 -84.44759 11227 ft 232 kts 142°
2026-05-07 02:09 34.05691 -84.43596 10557 ft 239 kts 143°
2026-05-07 02:09 34.04327 -84.42452 10050 ft 238 kts 146°
2026-05-07 02:09 34.02903 -84.41464 9693 ft 229 kts 155°
2026-05-07 02:09 34.01451 -84.40607 8965 ft 239 kts 149°
2026-05-07 02:10 34.00104 -84.39453 8261 ft 234 kts 142°
2026-05-07 02:10 33.98817 -84.38260 7470 ft 234 kts 142°